Location: Baili�vre
(50.0696°N, 4.2409°E)
Time: 15:42:40
(UTC+00:00)

ERS-1 Rocket - Pass Details

Date: 08 August 2020
Orbit: 753 x 757 km, 98.5° (Epoch: 18 September)

Event Time Altitude Azimuth Distance (km) Brightness Sun altitude
Exits shadow 21:36:07 23° 189° (S) 1,572 4.2 -18.0°
Maximum altitude 21:39:08 56° 259° (W) 901 3.4 -18.2°
Drops below altitude 10° 21:44:06 10° 338° (NNW) 2,292 6.7 -18.7°
Sets 21:46:27 0° 343° (NNW) 3,221 7.7 -18.9°
